ソーホー彗星

C/1996 D1 ( SOHO )

English version
Home page
Updated on September 29, 1997

---------------------------------------------------------------------

・ プロフィール

発見日 1996年2月18日
発見光度 5等
発見者 SOHO-LASCO coronagraph C3

・ 軌道要素

T 1996 Feb. 19.41465 TT                                 Marsden
q   0.0054381            (2000.0)            P               Q
                   Peri.  111.25724     +0.00267959     -0.90076584
                   Node    33.01709     -0.90972531     -0.18251800
e   1.0            Incl.  127.15191     +0.41520198     -0.39409146
>From 8 observations 1996 Feb. 18.

・ 光度変化

        m1 = 14.5 + 5 logΔ + 10 log r

---------------------------------------------------------------------

軌道要素は Dr. Brian G. Marsden の計算によるもので、 M.P.E.C. 1997-M10 に掲載されたものです。
光度グラフはComet for Windowsで作成したものです。

---------------------------------------------------------------------

Copyright(C) Seiichi Yoshida (comet@aerith.net). All rights reserved.